KINEIS-5C

Last updated on Thu Sep 10 2026 00:02:52 GMT+0000 (Coordinated Universal Time)

1 62081U 24219A 26252.60376750 .00000417 00000+0 73705-4 0 9993 2 62081 97.9140 49.1613 0004528 30.4525 329.6945 14.72310283 96173
UTC large
Height (km)
Speed (km/s)
/
Latitude / Longitude
Inclination (degrees)
Orbital Period (minutes)
Azimuth
Elevation
Range (km)
Doppler Factor

Next 0 passes for location: London (51.5072 / 0.1276)

No passes found over London.
KINEIS-5C